Mazatlan Airport, Mexico

1:53 AM MST on January 23, 2018 (GMT -0700)
Gen Rafael Buelna International

Weather History for MMMZ - September, 2013

Change the Weather History Date:

Saturday, September 14, 2013

  Actual Average Record
Temperature  
Mean Temperature 82 °F -  
Max Temperature 89 °F 86 °F 93 °F (1997)
Min Temperature 75 °F 74 °F 68 °F (2003)
Cooling Degree Days 17    
Growing Degree Days 32 (Base 50)    
Moisture  
Dew Point 76 °F    
Average Humidity 80    
Maximum Humidity 94    
Minimum Humidity 57    
Precipitation  
Precipitation 0.00 in - - ()
Sea Level Pressure  
Sea Level Pressure 29.54 in    
Wind  
Wind Speed 7 mph ()    
Max Wind Speed 13 mph    
Max Gust Speed -    
Visibility 11.4 miles    
Events Thunderstorm    
Averages and records for this station are not official NWS values.
T = Trace of Precipitation, MM = Missing Value Source: Averaged Metar Reports

Daily Weather History Graph

Daily Weather History Graph

Search for Another Location

Airport or City:

Trip Planner

Search our weather history database for the weather conditions in past years. The results will help you decide how hot, cold, wet, or windy it might be!

Date:

Astronomy

Sep. 14, 2013 Rise Set
Actual Time 6:51 AM MDT 7:09 PM MDT
Civil Twilight 6:28 AM MDT 7:31 PM MDT
Nautical Twilight 6:02 AM MDT 7:58 PM MDT
Astronomical Twilight 5:35 AM MDT 8:24 PM MDT
Moon 3:28 PM MDT (9/14) 1:53 AM MDT (9/14)
Length of Visible Light 13h 02m
Length of Day
12h 17m
Waxing Gibbous, 73% of the Moon is Illuminated
Sep 14
Waxing Gibbous
Sep 19
Full
Sep 26
Last Quarter
Oct 4
New
Oct 11
First Quarter

Hourly Weather History & Observations

Time (MDT) Temp. Heat Index Dew Point Humidity Pressure Visibility Wind Dir Wind Speed Gust Speed Precip Events Conditions
12:00 AM 84 °F - 71 °F 57% 29.55 in - WNW 4.5 mph - -  
12:48 AM 75.2 °F - 73.4 °F 94% 29.53 in 10.0 mi East 6.9 mph - N/A   Overcast
1:45 AM 75.2 °F - 73.4 °F 94% 29.53 in 10.0 mi NW 6.9 mph - N/A   Overcast
2:41 AM 75.2 °F - 73.4 °F 94% 29.53 in 10.0 mi NNE 6.9 mph - N/A   Overcast
3:00 AM 82 °F - 75 °F 74% 29.55 in - SE 4.5 mph - -  
3:40 AM 75.2 °F - 73.4 °F 94% 29.54 in 10.0 mi NNE 8.1 mph - N/A   Mostly Cloudy
4:40 AM 75.2 °F - 73.4 °F 94% 29.54 in 10.0 mi North 9.2 mph - N/A   Mostly Cloudy
5:49 AM 75.2 °F - 73.4 °F 94% 29.58 in 10.0 mi NE 8.1 mph - N/A   Mostly Cloudy
6:00 AM 81 °F - 76 °F 79% 29.57 in - NW 2.2 mph - -  
6:48 AM 75.2 °F - 73.4 °F 94% 29.57 in 10.0 mi NE 6.9 mph - N/A   Mostly Cloudy
7:47 AM 80.6 °F 86.2 °F 75.2 °F 84% 29.58 in 10.0 mi NE 8.1 mph - N/A   Partly Cloudy
8:51 AM 82.4 °F 92.4 °F 78.8 °F 89% 29.59 in 10.0 mi East 8.1 mph - N/A   Scattered Clouds
9:00 AM 88 °F - 76 °F 59% 29.60 in - East 6.7 mph - -  
9:43 AM 84.2 °F 96.1 °F 78.8 °F 84% 29.58 in 10.0 mi NE 8.1 mph - N/A   Scattered Clouds
10:48 AM 86.0 °F 96.9 °F 77.0 °F 74% 29.57 in 12.0 mi ENE 5.8 mph - N/A   Clear
11:42 AM 87.8 °F 99.7 °F 77.0 °F 70% 29.58 in 12.0 mi Calm Calm - N/A   Partly Cloudy
12:44 PM 89.6 °F 104.7 °F 78.8 °F 70% 29.55 in 15.0 mi WSW 8.1 mph - N/A   Partly Cloudy
1:44 PM 89.6 °F 104.7 °F 78.8 °F 70% 29.53 in 10.0 mi SW 9.2 mph - N/A   Scattered Clouds
2:45 PM 89.6 °F 108.2 °F 80.6 °F 75% 29.54 in 15.0 mi WSW 12.7 mph - N/A   Clear
3:43 PM 89.6 °F 108.2 °F 80.6 °F 75% 29.48 in 15.0 mi WSW 10.4 mph - N/A   Clear
4:41 PM 87.8 °F 104.9 °F 80.6 °F 79% 29.47 in 15.0 mi WSW 10.4 mph - N/A   Clear
5:40 PM 87.8 °F 104.9 °F 80.6 °F 79% 29.48 in 15.0 mi WSW 12.7 mph - N/A   Clear
6:42 PM 87.8 °F 104.9 °F 80.6 °F 79% 29.50 in 15.0 mi WNW 10.4 mph - N/A   Scattered Clouds
7:47 PM 84.2 °F 96.1 °F 78.8 °F 84% 29.49 in 10.0 mi WNW 9.2 mph - N/A Thunderstorm Thunderstorm
8:44 PM 82.4 °F 88.2 °F 73.4 °F 74% 29.51 in 10.0 mi NW 10.4 mph - N/A   Scattered Clouds
9:45 PM 78.8 °F - 69.8 °F 74% 29.53 in 10.0 mi North 10.4 mph - N/A   Scattered Clouds
10:42 PM 78.8 °F - 69.8 °F 74% 29.53 in 10.0 mi West 9.2 mph - N/A   Scattered Clouds
11:40 PM 78.8 °F - 69.8 °F 74% 29.62 in 10.0 mi NNW 8.1 mph - N/A   Scattered Clouds